Weather Roundup
Issued by NWS

Home | Current Version | Previous Version | Graphics & Text | Print | Product List | Glossary On
Versions: 1 2 3 4 5 6 7 8 9 10 11 12 13 14 15 16 17 18 19 20 21 22 23 24 25 26 27 28 29 30 31 32 33 34 35 36 37 38 39 40 41 42 43 44 45 46 47 48 49 50
000
NZUS93 KARX 261359
HRRWXR

CURRENT HOURLY OBSERVATIONS ACROSS
MUCH OF THE UPPER MISSISSIPPI VALLEY
NATIONAL WEATHER SERVICE LA CROSSE WI
800 AM CST WED NOV 26 2014


...SOUTHEAST MINNESOTA...


CITY           SKY/WX    TMP DP  RH WIND       PRES   REMARKS
ROCHESTER      LGT SNOW  21  17  84 E12       30.04R FOG     WCI   9
ROCHESTER/MAYO CLOUDY    23  17  78 E3        30.05R
WINONA         MOCLDY    21  18  86 SE7       30.12R WCI  13
AUSTIN         FLURRIES  25  21  86 E10       30.00R WCI  15
ALBERT LEA     LGT SNOW  25  25 100 E10       29.99R WCI  15
DODGE CENTER   LGT SNOW  23  19  86 E14       30.02R WCI  11
PRESTON        CLOUDY    20  17  88 E10       30.04R WCI   9
OWATONNA       LGT SNOW  23  19  86 NE10      30.02R VSB 3/4 WCI  12
FARIBAULT      LGT SNOW  21  19  93 NE7       30.06R VSB 3/4 WCI  13
$$

...ELSEWHERE IN MINNESOTA...


CITY           SKY/WX    TMP DP  RH WIND       PRES   REMARKS
MINNEAPOLIS    LGT SNOW  22  19  89 N7        30.11R FOG     WCI  13
INTNL FALLS    MOCLDY     4  -1  80 N7        30.23R WCI  -8
DULUTH         LGT SNOW  18  13  80 N8        30.11R WCI   8
RED WING       FLURRIES  23  16  74 E7        30.10R WCI  15
REDWOOD FALLS  LGT SNOW  24  21  88 N13G22    30.09R FOG     WCI  12
MANKATO        CLOUDY    23  19  86 NE16      30.04R VSB 1   WCI  10
WORTHINGTON    CLOUDY    23  19  86 N20       30.01R WCI   8
FAIRMONT       CLOUDY    25  21  86 N10       30.00R WCI  15
$$

...SOUTHWEST WISCONSIN...


CITY           SKY/WX    TMP DP  RH WIND       PRES   REMARKS
LA CROSSE      CLOUDY    21  16  81 E7        30.12R WCI  12
PRAIRIE DU CHI CLOUDY    18  14  85 CALM      30.11R
BOSCOBEL       CLOUDY    15  12  88 NE5       30.13R WCI   8
LONE ROCK      NOT AVBL
PLATTEVILLE    CLOUDY    16  14  93 E8        30.08R WCI   5
FORT MC COY    CLOUDY    17  15  91 E3        30.12S
VIROQUA        CLOUDY    15  15 100 CALM      30.08R
WIS DELLS      PTCLDY     7   4  89 CALM      30.12R FOG
$$

...ELSEWHERE IN WISCONSIN...


CITY           SKY/WX    TMP DP  RH WIND       PRES   REMARKS
MILWAUKEE      MOCLDY    18  15  88 CALM      30.15F FOG
MADISON        CLOUDY    14  13  95 SE3       30.13R FOG
GREEN BAY      PTCLDY    13  10  88 N3        30.17R FOG
EAU CLAIRE     CLOUDY    21  15  78 E6        30.12R WCI  13
BLACK RVR FLS  CLOUDY    18  15  91 E3        30.12R
MEDFORD        CLOUDY    18  15  88 E3        30.08R
WAUSAU         CLOUDY    17  15  92 SE3       30.10S
WIS RAPIDS     CLOUDY    15  11  83 CALM      30.15R
MARSHFIELD     CLOUDY    18  14  84 SE5       30.10S FOG     WCI  11
RICE LAKE      CLOUDY    20  17  86 CALM      30.12R
$$

...NORTHEAST IOWA...


CITY           SKY/WX    TMP DP  RH WIND       PRES   REMARKS
DECORAH        CLOUDY    19  16  86 E8        30.04S WCI   9
MASON CITY     LGT SNOW  25  21  85 SE13      29.99R FOG     WCI  14
CHARLES CITY   MOCLDY    25  19  80 E13       30.00R WCI  13
OELWEIN        MOCLDY    23  19  86 E13       30.01S WCI  11
$$

...ELSEWHERE IN IOWA...


CITY           SKY/WX    TMP DP  RH WIND       PRES   REMARKS
DES MOINES     FRZ DRZL  30  27  88 E8        29.88S FOG     WCI  22
IOWA CITY      CLOUDY    25  22  88 E7        30.03S WCI  17
FORT DODGE     CLOUDY    27  21  80 E12       29.94R WCI  16
$$

...NORTHERN ILLINOIS...


CITY           SKY/WX    TMP DP  RH WIND       PRES   REMARKS
CHICAGO-OHARE  CLOUDY    21  17  84 CALM      30.15R
CHICAGO-MIDWAY CLOUDY    26  20  77 S6        30.16S WCI  19
MOLINE         CLOUDY    21  18  88 E8        30.06F FOG     WCI  11
ROCKFORD       CLOUDY    18  14  84 E9        30.15F FOG     WCI   7
PEORIA         MOCLDY    26  21  81 SE7       30.10S WCI  18
$$

NOTE: "FAIR" INDICATES FEW OR NO CLOUDS BELOW 12,000 FEET WITH NO
SIGNIFICANT WEATHER AND/OR OBSTRUCTIONS TO VISIBILITY. WIND
SPEEDS ARE IN MILES-PER-HOUR.



USA.gov is the U.S. government's official web portal to all federal, state and local government web resources and services.